Weather History for Park Rapids, MN

Change the Weather History Date:

Friday, December 21, 2012

  Actual Average Record
Temperature  
Mean Temperature 3 °F -  
Max Temperature 12 °F 19 °F 41 °F (1979)
Min Temperature -6 °F 0 °F -32 °F (1989)
Degree Days  
Heating Degree Days 62    
Moisture  
Dew Point -1 °F    
Average Humidity 83    
Maximum Humidity 88    
Minimum Humidity 74    
Precipitation  
Precipitation 0.00 in - - ()
Sea Level Pressure  
Sea Level Pressure 30.26 in    
Wind  
Wind Speed 5 mph (West)    
Max Wind Speed 8 mph    
Max Gust Speed -    
Visibility 9 miles    
Events      
Averages and records for this station are not official NWS values.
T = Trace of Precipitation, MM = Missing Value Source: NWS Daily Summary

Daily Weather History Graph

Daily Weather History Graph

Search for Another Location

Airport:

Trip Planner

Search our weather history database for the weather conditions in past years. The results will help you decide how hot, cold, wet, or windy it might be!

Date:

Astronomy

Dec. 21, 2012 Rise Set
Actual Time 8:03 AM CST 4:34 PM CST
Civil Twilight 7:27 AM CST 5:09 PM CST
Nautical Twilight 6:48 AM CST 5:48 PM CST
Astronomical Twilight 6:11 AM CST 6:25 PM CST
Moon 12:36 PM CST (12/21) 1:34 AM CST (12/21)
Length of Visible Light 9h 42m
Length of Day
8h 31m
Waxing Gibbous, 65% of the Moon is Illuminated
Dec 21
Waxing Gibbous
Dec 28
Full
Jan 4
Last Quarter
Jan 11
New
Jan 18
First Quarter

Hourly Weather History & Observations

Time (CST) Temp. Windchill Dew Point Humidity Pressure Visibility Wind Dir Wind Speed Gust Speed Precip Events Conditions
12:53 AM 3.9 °F -9.4 °F -0.0 °F 84% 30.23 in 10.0 mi NNW 8.1 mph - N/A   Overcast
1:53 AM 3.9 °F -9.4 °F 1.0 °F 88% 30.24 in 10.0 mi North 8.1 mph - N/A   Overcast
2:53 AM 3.9 °F -6.9 °F -0.0 °F 84% 30.26 in 10.0 mi NNW 5.8 mph - N/A   Overcast
3:53 AM 3.0 °F -9.3 °F -0.0 °F 87% 30.26 in 10.0 mi North 6.9 mph - N/A   Overcast
4:53 AM 1.0 °F -11.7 °F -2.0 °F 87% 30.28 in 10.0 mi NW 6.9 mph - N/A   Overcast
5:29 AM -2.2 °F -14.2 °F -5.8 °F 85% 30.17 in 10.0 mi NW 5.8 mph - N/A   Scattered Clouds
5:53 AM -5.1 °F -13.6 °F -9.0 °F 83% 30.30 in 10.0 mi WNW 3.5 mph - N/A   Clear
6:53 AM -5.1 °F -13.6 °F -9.9 °F 80% 30.32 in 10.0 mi NNW 3.5 mph - N/A   Clear
7:53 AM -4.0 °F -12.4 °F -9.0 °F 79% 30.32 in 10.0 mi North 3.5 mph - N/A   Clear
8:02 AM -4.0 °F - -7.6 °F 85% 30.20 in 1.8 mi Calm Calm - N/A   Clear
8:09 AM -4.0 °F - -7.6 °F 85% 30.21 in 3.0 mi Calm Calm - N/A   Clear
8:53 AM -6.0 °F -14.7 °F -9.9 °F 83% 30.35 in 10.0 mi West 3.5 mph - 0.00 in   Clear
9:53 AM -2.0 °F -10.1 °F -6.0 °F 83% 30.35 in 10.0 mi West 3.5 mph - N/A   Clear
10:53 AM 1.9 °F - -2.0 °F 83% 30.35 in - Calm Calm - N/A   Clear
11:53 AM 5.0 °F - 1.0 °F 84% 30.32 in 10.0 mi Calm Calm - N/A   Clear
12:53 PM 9.0 °F - 3.0 °F 77% 30.30 in 10.0 mi Calm Calm - N/A   Clear
1:53 PM 12.9 °F 6.9 °F 6.1 °F 74% 30.27 in 10.0 mi SSE 3.5 mph - N/A   Clear
2:53 PM 12.9 °F 5.2 °F 6.1 °F 74% 30.26 in 10.0 mi SE 4.6 mph - N/A   Clear
3:53 PM 12.9 °F - 7.0 °F 77% 30.26 in 10.0 mi Calm Calm - N/A   Clear
4:53 PM 10.9 °F - 6.1 °F 81% 30.27 in 10.0 mi Calm Calm - N/A   Clear
5:53 PM 10.0 °F 1.8 °F 6.1 °F 84% 30.26 in 10.0 mi SE 4.6 mph - N/A   Clear
6:53 PM 9.0 °F 0.6 °F 5.0 °F 84% 30.25 in 10.0 mi SE 4.6 mph - N/A   Clear
7:53 PM 8.1 °F -2.0 °F 3.9 °F 83% 30.23 in 10.0 mi SE 5.8 mph - N/A   Clear
8:53 PM 7.0 °F 0.1 °F 3.0 °F 84% 30.23 in 10.0 mi SSE 3.5 mph - N/A   Clear
9:53 PM 3.9 °F -8.2 °F 1.0 °F 88% 30.22 in 10.0 mi SSE 6.9 mph - N/A   Clear
10:53 PM 7.0 °F -4.5 °F 3.0 °F 84% 30.20 in 10.0 mi SE 6.9 mph - N/A   Clear
11:53 PM 5.0 °F -5.6 °F 1.9 °F 87% 30.20 in 10.0 mi South 5.8 mph - N/A   Clear